CAPE
0 0 0 0 0 0 0 0 0 0 0 0 0 0 0 0 0 0 0 0 0 0 0 0 0 0 0 0 0 0 0 11 44 0 0 0 0 56 224 271 312 383 249 537 526
0 0 0 0 0 0 0 0 0 0 0 0 0 0 0 0 0 0 0 0 0 0 0 0 0 0 0 0 0 0 0 10 20 0 0 0 0 0 176 365 364 355 497 565 483
0 0 0 0 0 0 0 0 0 0 0 0 0 0 0 0 0 0 0 0 0 0 0 0 0 0 0 0 0 0 0 0 0 0 0 0 0 3 80 130 319 455 629 513 398
0 0 0 0 0 0 0 0 0 0 0 0 0 0 0 0 0 0 0 0 0 0 0 0 0 0 0 0 0 0 0 0 0 0 0 0 0 0 4 80 422 414 666 577 337
0 0 0 0 0 0 0 0 0 0 0 0 0 0 0 0 0 0 0 0 0 0 0 0 0 0 0 0 0 0 0 0 0 0 0 0 0 0 0 104 291 429 682 709 571
0 0 0 0 0 0 0 0 0 0 0 0 0 0 0 0 0 0 0 0 0 0 0 0 0 0 0 0 0 0 0 0 0 0 0 0 0 1 0 11 165 380 546 785 863
0 0 0 0 0 0 0 0 0 0 0 0 0 0 0 0 0 0 0 0 0 0 0 0 0 0 0 0 0 0 0 0 0 0 0 0 0 0 0 79 128 255 489 644 857
0 0 0 0 0 0 0 0 0 0 0 0 0 0 0 0 0 0 0 0 0 0 0 0 0 0 0 0 0 0 0 0 0 0 0 0 0 0 0 0 1 91 267 523 653
0 0 0 0 0 0 0 0 0 0 0 0 0 0 0 0 0 0 0 0 0 0 0 0 0 0 0 0 0 0 0 0 0 0 0 0 0 0 0 0 0 0 17 266 559
0 0 0 0 0 0 0 0 0 0 0 0 0 0 0 0 0 0 0 0 0 0 0 0 0 0 0 0 0 0 0 0 0 0 0 0 0 0 0 0 0 0 0 19 279
0 0 0 0 0 0 0 0 0 0 0 0 0 0 0 0 0 0 0 0 0 0 0 0 0 0 0 0 0 0 0 0 0 0 0 0 0 0 0 0 0 0 0 0 181
0 0 0 0 0 0 0 0 0 0 0 0 0 0 0 0 0 0 0 0 0 0 0 0 0 0 0 0 0 0 0 0 0 0 0 0 0 0 0 0 6 1 0 5 198
0 0 0 0 0 0 0 0 0 0 0 0 0 0 0 0 0 0 0 0 0 0 0 0 0 0 0 0 0 0 0 0 0 0 0 0 0 0 0 5 212 137 16 136 271
0 0 0 0 0 0 0 0 0 0 0 0 0 0 0 0 0 0 0 0 0 0 0 0 0 0 0 0 0 0 0 0 0 0 0 0 0 0 0 0 17 233 170 88 246
0 0 0 0 0 0 0 0 0 0 0 0 0 0 0 0 0 0 0 0 0 0 0 0 0 0 0 0 0 0 0 0 0 0 0 0 0 0 0 0 0 174 597 465 486
0 0 0 0 0 0 0 0 0 0 0 0 0 0 0 0 0 0 0 0 0 0 0 0 0 0 0 0 0 0 0 0 0 0 0 0 0 0 0 0 0 149 577 827 828
0 0 0 0 0 0 0 0 0 0 0 0 0 0 0 0 0 0 0 0 0 0 0 0 0 0 0 0 0 0 0 0 0 0 0 0 0 0 0 0 0 0 16 370 874
0 0 0 0 0 0 0 0 0 0 0 0 0 0 0 0 0 0 0 0 0 0 0 0 0 0 0 0 0 0 0 0 0 0 0 0 0 0 0 0 0 0 85 231 708
0 0 0 0 0 0 0 0 0 0 0 0 0 0 0 0 0 0 0 0 0 0 0 0 0 0 0 0 0 0 0 0 0 0 0 0 0 0 0 0 0 0 135 398 732
0 0 0 0 0 0 0 0 0 0 0 0 0 0 0 0 0 0 0 0 0 0 0 0 0 0 0 0 0 0 0 0 0 0 0 0 0 0 0 0 0 0 12 450 797
0 0 0 0 0 0 0 0 0 0 0 0 0 0 0 0 0 0 0 0 0 0 0 0 0 0 0 0 0 0 0 0 0 0 0 0 0 0 0 0 0 0 0 190 986
0 0 0 0 0 0 0 0 0 0 0 0 0 0 0 0 0 0 0 0 0 0 0 0 0 0 0 0 0 0 0 0 0 0 0 0 0 0 0 0 0 0 0 393 1001
0 0 0 0 0 0 0 0 0 0 0 0 0 0 0 0 0 0 0 0 0 0 0 0 0 0 0 0 0 0 0 0 0 0 0 0 0 0 0 0 0 0 0 320 1065
0 0 0 0 0 0 0 0 0 0 0 0 0 0 0 0 0 0 0 0 0 0 0 0 0 0 0 7 0 0 0 0 0 0 0 0 0 0 0 0 0 0 0 293 1000
0 0 0 0 0 0 0 0 0 0 0 0 0 0 0 0 0 0 0 0 0 0 0 0 0 0 0 0 0 0 0 0 0 0 0 0 0 0 0 0 0 0 25 401 854
0 0 0 0 0 0 0 0 0 0 0 0 0 0 0 0 0 0 0 0 0 0 0 0 0 0 0 0 0 0 0 0 0 0 0 0 0 0 0 9 30 0 0 172 715
0 0 0 0 0 0 0 0 0 0 0 0 0 0 0 0 0 0 0 0 0 0 0 0 0 0 0 0 0 0 0 0 0 0 0 0 0 0 0 6 64 136 49 48 374
CIN
0 0 0 0 0 0 0 0 0 0 0 0 0 0 0 0 0 0 0 0 0 0 0 0 0 0 0 0 0 0 0 -7 -3 -1 0 0 0 -105 -148 -95 -102 -92 -89 -65 -143
0 0 0 0 0 0 0 0 0 0 0 0 0 0 0 0 0 0 0 0 0 0 0 0 0 0 0 0 0 0 0 -5 -9 0 0 0 0 0 -83 -72 -85 -91 -99 -112 -180
0 0 0 0 0 0 0 0 0 0 0 0 0 0 0 0 0 0 0 0 0 0 0 0 0 0 0 0 0 0 0 0 0 0 0 0 0 -86 -76 -33 -30 -39 -62 -130 -152
0 0 0 0 0 0 0 0 0 0 0 0 0 0 0 0 0 0 0 0 0 0 0 0 0 0 0 0 0 0 0 0 0 0 0 0 0 0 -45 -39 -105 -58 -62 -96 -130
0 0 0 0 0 0 0 0 0 0 0 0 0 0 0 0 0 0 0 0 0 0 0 0 0 0 0 0 0 0 0 0 0 0 0 0 0 0 0 -67 -107 -85 -83 -83 -100
0 0 0 0 0 0 0 0 0 0 0 0 0 0 0 0 0 0 0 0 0 0 0 0 0 0 0 0 0 0 0 0 0 0 0 0 0 -85 0 -60 -81 -118 -89 -81 -81
0 0 0 0 0 0 0 0 0 0 0 0 0 0 0 0 0 0 0 0 0 0 0 0 0 0 0 0 0 0 0 0 0 0 0 0 0 0 -1 -78 -54 -70 -99 -78 -78
0 0 0 0 0 0 0 0 0 0 0 0 0 0 0 0 0 0 0 0 0 0 0 0 0 0 0 0 0 0 0 0 0 0 0 0 0 0 0 0 -24 -39 -55 -91 -89
0 0 0 0 0 0 0 0 0 0 0 0 0 0 0 0 0 0 0 0 0 0 0 0 0 0 0 0 0 0 0 0 0 0 0 0 0 0 0 0 0 0 -35 -55 -78
0 0 0 0 0 0 0 0 0 0 0 0 0 0 0 0 0 0 0 0 0 0 0 0 0 0 0 0 0 0 0 0 0 0 0 0 0 0 0 0 0 0 0 -42 -49
0 0 0 0 0 0 0 0 0 0 0 0 0 0 0 0 0 0 0 0 0 0 0 0 0 0 0 0 0 0 0 0 0 0 0 0 0 0 0 0 0 0 0 0 -54
0 0 0 0 0 0 0 0 0 0 0 0 0 0 0 0 0 0 0 0 0 0 0 0 0 0 0 0 0 0 0 0 0 0 0 0 0 0 0 0 -15 -25 0 -46 -59
0 0 0 0 0 0 0 0 0 0 0 0 0 0 0 0 0 0 0 0 0 0 0 0 0 0 0 0 0 0 0 0 0 0 0 0 0 0 0 -23 -45 -114 -113 -75 -92
0 0 0 0 0 0 0 0 0 0 0 0 0 0 0 0 0 0 0 0 0 0 0 0 0 0 0 0 0 0 0 0 0 0 0 0 0 0 0 0 -25 -41 -83 -111 -146
0 0 0 0 0 0 0 0 0 0 0 0 0 0 0 0 0 0 0 0 0 0 0 0 0 0 0 0 0 0 0 0 0 0 0 0 0 0 0 0 0 -33 -64 -104 -152
0 0 0 0 0 0 0 0 0 0 0 0 0 0 0 0 0 0 0 0 0 0 0 0 0 0 0 0 0 0 0 0 0 0 0 0 0 0 0 0 0 -46 -84 -145 -175
0 0 0 0 0 0 0 0 0 0 0 0 0 0 0 0 0 0 0 0 0 0 0 0 0 0 0 0 0 0 0 0 0 0 0 0 0 0 0 0 0 0 -41 -102 -179
0 0 0 0 0 0 0 0 0 0 0 0 0 0 0 0 0 0 0 0 0 0 0 0 0 0 0 0 0 0 0 0 0 0 0 0 0 0 0 0 0 0 -87 -102 -131
0 0 0 0 0 0 0 0 0 0 0 0 0 0 0 0 0 0 0 0 0 0 0 0 0 0 0 0 0 0 0 0 0 0 0 0 0 0 0 0 0 0 -60 -72 -136
0 0 0 0 0 0 0 0 0 0 0 0 0 0 0 0 0 0 0 0 0 0 0 0 0 0 0 0 0 0 0 0 0 0 0 0 0 0 0 0 0 0 -9 -40 -201
0 0 0 0 0 0 0 0 0 0 0 0 0 0 0 0 0 0 0 0 0 0 0 0 0 0 0 0 0 0 0 0 0 0 0 0 0 0 0 0 0 0 0 -34 -165
0 0 0 0 0 0 0 0 0 0 0 0 0 0 0 0 0 0 0 0 0 0 0 0 0 0 0 0 0 0 0 0 0 0 0 0 0 0 0 0 0 0 0 -40 -117
0 0 0 0 0 0 0 0 0 0 0 0 0 0 0 0 0 0 0 0 0 0 0 0 0 0 0 0 0 0 0 0 0 0 0 0 0 0 0 0 0 0 0 -45 -132
0 0 0 0 0 0 0 0 0 0 0 0 0 0 0 0 0 0 0 0 0 0 0 0 0 0 0 -11 0 0 0 0 0 0 0 0 0 0 0 0 0 0 0 -41 -127
0 0 0 0 0 0 0 0 0 0 0 0 0 0 0 0 0 0 0 0 0 0 0 0 0 0 0 0 0 0 0 0 0 0 0 0 0 0 0 0 0 0 -69 -71 -124
0 0 0 0 0 0 0 0 0 0 0 0 0 0 0 0 0 0 0 0 0 0 0 0 0 0 0 0 0 0 0 0 0 0 0 0 0 0 0 -52 -63 -1 0 -44 -96
0 0 0 0 0 0 0 0 0 0 0 0 0 0 0 0 0 0 0 0 0 0 0 0 0 0 0 0 0 0 0 0 0 0 0 0 0 0 0 -5 -47 -59 -60 -60 -64
Wind_Speed
23 24 24 25 25 25 26 26 26 26 26 26 25 25 25 26 26 14 9 14 13 7 8 8 7 6 8 10 2 17 2 1 6 6 11 14 16 16 15 11 10 12 14 15 14
24 25 25 26 26 26 27 27 27 27 27 26 26 25 25 25 24 19 12 15 9 7 9 10 8 8 11 13 4 9 6 0 12 12 11 17 18 19 12 11 9 10 12 13 16
25 26 26 26 27 27 28 28 28 28 28 27 26 26 25 25 23 13 11 13 8 10 15 15 7 11 14 12 10 8 11 5 4 11 19 18 18 14 11 8 9 11 14 14 16
25 26 27 27 27 28 29 29 30 29 29 28 27 25 25 19 17 13 18 14 11 11 10 8 11 12 13 9 11 5 8 6 4 13 12 6 21 17 6 5 13 12 13 14 11
25 26 26 27 27 28 29 30 29 29 29 27 25 23 20 17 17 16 17 11 10 11 12 11 11 12 12 5 4 8 7 2 3 2 3 24 15 22 25 10 9 11 12 12 11
26 26 27 27 27 27 28 28 28 28 28 25 22 19 18 17 16 15 12 8 7 9 8 11 8 8 6 6 5 12 5 7 4 5 5 24 22 23 16 5 7 8 9 10 9
27 28 28 28 28 28 28 27 27 25 25 18 15 16 19 20 15 11 10 12 6 6 6 6 8 11 9 6 12 6 4 7 11 9 13 17 26 25 11 12 4 8 10 9 7
28 29 30 30 30 31 29 28 25 23 19 13 11 15 18 15 14 10 11 11 7 8 11 9 6 7 7 12 9 4 4 5 10 2 4 5 18 7 11 23 24 12 12 11 8
29 29 30 30 30 30 29 27 22 19 15 13 15 16 18 14 13 11 7 10 6 7 12 10 7 8 8 4 5 5 3 5 5 4 5 11 24 24 15 26 30 25 19 16 3
30 31 31 31 32 30 29 22 19 17 15 17 17 18 14 14 12 13 9 3 7 5 10 8 8 8 6 3 3 9 6 4 2 5 4 22 27 31 30 30 32 30 32 25 15
30 31 31 31 31 29 26 21 22 18 19 20 18 19 14 17 14 10 5 2 6 5 10 10 11 9 6 5 19 14 11 10 10 10 28 30 30 31 33 32 34 33 34 36 13
31 31 31 31 29 26 22 19 20 23 25 23 21 22 22 17 17 9 4 1 5 9 10 12 15 16 15 11 10 9 12 11 15 17 5 30 31 30 32 32 31 31 28 17 6
30 30 30 31 27 21 20 18 23 19 20 17 16 16 16 6 13 9 2 2 5 8 10 17 16 16 12 11 11 11 18 17 17 24 24 31 32 31 18 26 26 26 27 1 11
30 30 30 30 20 23 16 22 25 16 18 13 13 13 13 12 13 7 3 4 11 11 13 19 17 16 16 17 17 22 18 16 16 13 23 14 30 11 14 24 17 17 7 5 10
30 30 30 26 24 20 20 23 20 16 19 15 14 14 13 9 13 7 3 7 12 12 11 17 16 17 18 18 15 20 18 16 19 20 27 31 25 31 16 26 22 17 13 11 12
31 30 30 19 20 19 22 23 15 14 15 14 14 14 12 8 10 9 5 11 15 14 16 25 16 18 19 18 19 19 16 18 20 20 18 22 30 27 21 20 22 17 19 20 21
31 31 28 21 18 21 22 13 13 14 15 15 14 18 14 10 7 7 1 4 10 14 19 18 21 16 18 18 12 16 19 22 18 14 22 16 20 28 29 23 25 27 24 24 22
32 31 18 19 21 21 15 12 14 15 15 15 16 17 12 14 9 5 5 3 5 14 21 20 21 16 17 17 20 16 19 24 26 25 22 12 22 21 18 24 27 27 25 25 19
32 21 18 16 18 14 11 12 16 15 15 18 17 14 11 12 14 8 2 5 11 5 17 18 19 16 17 17 17 21 23 24 31 28 30 27 21 20 19 20 22 23 23 22 19
25 22 18 20 14 12 12 17 16 14 16 17 17 15 14 13 11 12 6 16 13 16 16 17 21 16 18 13 15 21 19 20 22 32 35 28 23 22 19 23 23 23 25 24 18
20 21 19 13 14 13 16 19 19 15 17 18 17 16 15 15 15 13 13 13 17 17 15 15 15 16 14 15 19 14 21 22 26 27 32 34 27 20 21 23 25 28 28 25 14
18 20 14 16 17 17 19 20 20 18 18 19 20 18 18 18 19 18 15 16 20 20 14 15 16 16 16 23 21 26 28 21 27 28 27 33 35 29 29 31 28 31 30 24 15
19 19 14 16 20 20 20 21 20 20 20 19 19 19 19 21 22 20 19 17 20 19 17 20 14 16 14 14 15 18 17 20 24 29 34 38 35 20 23 28 32 34 31 25 14
19 20 17 17 22 23 21 22 22 19 21 22 22 20 19 21 20 22 21 20 21 21 22 22 19 19 22 23 20 14 14 15 19 29 32 32 35 30 33 35 37 34 31 24 13
19 21 21 21 19 20 21 22 22 21 20 19 21 21 21 24 24 25 25 25 22 22 24 24 25 25 27 29 30 25 24 23 22 26 33 34 34 33 33 35 37 35 29 23 12
21 20 18 21 20 20 19 22 23 21 21 21 24 21 22 24 25 25 24 24 26 25 25 24 30 29 34 32 33 32 26 23 21 19 25 31 39 35 38 37 36 36 29 25 19
18 18 21 18 19 20 21 21 21 20 20 23 22 21 23 23 22 23 25 26 27 28 27 28 30 30 40 36 38 40 30 25 23 23 26 29 36 35 32 37 36 34 32 31 21
Wind_Direction
322 320 316 312 309 306 303 300 297 293 288 286 287 286 283 285 280 347 210 327 340 23 44 40 75 90 129 151 65 292 129 121 359 34 5 353 349 8 19 59 61 54 36 41 71
321 318 315 311 308 305 301 298 295 291 287 286 289 288 283 287 270 221 336 322 344 90 108 107 74 90 141 157 80 157 168 353 327 331 343 332 335 342 33 67 85 81 46 60 88
319 317 313 309 305 301 300 296 293 289 287 288 290 291 290 291 296 355 8 356 103 121 150 156 10 127 153 148 147 151 180 329 5 321 306 326 330 349 25 126 84 109 96 90 97
317 314 312 308 304 300 298 295 290 288 286 288 293 296 296 318 317 348 303 341 107 115 114 106 135 136 151 139 148 151 170 168 322 322 324 141 309 208 26 322 7 67 93 106 95
315 311 308 304 301 299 298 293 289 286 285 289 295 303 313 318 315 323 321 8 83 104 118 114 128 142 151 79 55 166 160 132 175 321 346 291 194 236 250 3 31 54 91 107 101
314 311 308 302 300 298 296 291 287 284 285 295 304 313 316 318 325 328 348 17 21 93 91 119 95 106 97 89 116 344 167 174 166 174 312 213 219 281 332 4 122 62 105 114 115
314 311 308 304 302 301 298 294 291 291 295 321 328 321 314 306 324 345 350 336 18 9 47 61 15 120 21 65 332 9 17 166 181 177 182 292 217 210 321 345 25 133 137 136 125
313 311 309 308 307 307 304 300 302 314 337 358 7 333 320 322 323 316 326 329 356 343 329 342 13 20 97 345 21 70 46 150 165 109 25 123 194 159 319 273 268 166 165 160 153
312 309 307 305 304 304 304 309 326 337 351 11 348 334 325 343 327 323 319 320 2 351 323 326 341 333 348 56 38 57 95 135 111 15 6 162 214 279 318 264 245 221 199 181 255
314 312 310 307 306 302 303 331 342 349 345 334 324 322 327 335 345 329 323 355 333 6 334 331 323 316 322 1 63 350 18 13 117 38 162 209 219 237 251 259 243 238 235 205 276
311 309 308 306 304 302 318 332 326 334 329 309 315 314 329 327 330 341 355 349 337 327 310 310 302 293 304 312 309 329 341 345 343 340 236 231 234 236 239 262 249 247 241 234 274
307 306 304 302 296 297 317 336 336 318 311 308 306 298 296 314 314 327 32 333 301 302 310 308 294 297 301 308 320 333 325 329 329 323 292 243 249 242 246 251 255 253 223 171 270
302 300 299 298 292 320 332 343 324 340 331 328 326 320 321 323 308 315 338 222 282 289 297 294 311 298 298 303 306 311 306 314 321 293 228 252 253 240 300 262 246 231 216 112 289
304 303 303 299 309 308 347 323 314 351 342 359 354 343 338 329 309 327 115 318 301 288 300 295 295 300 298 289 296 297 309 312 320 330 294 310 268 312 305 270 315 294 330 183 305
305 305 305 305 299 318 313 300 319 354 326 353 360 349 347 338 327 318 358 321 299 299 298 304 300 293 289 292 297 299 308 310 311 307 287 269 286 259 308 280 293 300 310 325 315
304 304 304 327 318 313 302 295 344 346 327 349 355 347 351 360 346 340 313 319 310 298 298 289 306 298 297 298 290 304 307 305 302 302 296 289 272 281 294 305 301 312 304 301 296
299 297 302 318 320 310 305 341 340 326 345 336 339 323 340 358 12 2 42 285 307 302 294 295 292 295 291 294 305 296 297 297 298 292 295 300 292 281 282 299 300 297 299 298 298
298 292 321 312 307 303 319 327 319 332 326 337 325 324 337 335 356 8 19 316 286 303 304 299 299 290 292 280 286 292 289 288 291 292 299 311 299 303 305 298 300 304 304 302 304
298 315 316 322 314 316 314 309 319 320 324 316 317 324 340 332 326 353 18 347 318 296 302 306 302 319 309 297 282 281 286 289 285 290 287 294 308 315 308 314 314 311 314 311 310
306 306 309 310 316 310 303 299 307 314 313 314 310 320 318 321 327 327 351 324 325 312 304 310 297 307 314 319 305 284 304 290 286 282 279 293 297 302 315 314 321 320 319 314 318
313 304 315 325 312 300 291 295 301 306 304 304 306 306 307 314 314 317 322 326 315 317 313 307 307 310 310 298 295 300 286 289 291 290 286 285 293 310 310 315 313 313 321 324 332
317 304 326 315 295 294 291 296 301 299 299 295 296 298 296 298 297 303 306 311 308 304 321 317 312 304 296 299 295 290 287 290 285 288 290 288 285 297 294 300 307 306 314 323 338
309 308 318 308 293 290 295 294 294 294 294 295 294 291 293 289 291 289 294 302 306 308 309 306 311 308 312 308 302 294 291 288 291 291 284 285 291 314 307 294 296 299 307 318 324
307 303 308 297 297 293 291 290 290 294 290 290 291 292 292 287 286 290 290 294 296 299 300 300 298 297 296 309 317 312 306 303 293 288 291 290 295 301 298 294 291 295 303 312 315
300 297 301 301 294 290 291 294 287 290 291 292 292 285 285 285 284 282 284 286 291 296 294 294 290 290 289 289 292 296 296 296 294 294 289 293 295 301 303 297 290 291 300 309 313
295 297 300 300 300 292 287 288 287 289 289 287 286 289 286 283 283 290 286 288 285 292 292 293 286 288 284 287 287 289 289 287 285 284 291 295 290 298 293 293 289 283 292 302 307
297 301 298 301 296 292 287 288 289 285 290 290 291 286 287 287 293 294 292 289 288 288 289 289 286 286 282 285 285 282 282 277 276 280 290 291 294 296 301 295 291 286 286 291 304